Regional Weather Roundup
Issued by NWS Charleston, SC

Current Version | Previous Version | Text Only | Print | Product List | Glossary Off
Versions: 1 2 3 4 5 6 7 8 9 10 11 12 13 14 15 16 17 18 19 20 21 22 23 24 25 26 27 28 29 30 31 32 33 34 35 36 37 38 39 40 41 42 43 44 45 46 47 48 49 50
998 ASUS42 KCHS 231627 RWRCHS REGIONAL WEATHER ROUNDUP NATIONAL WEATHER SERVICE CHARLESTON SC 1100 AM EST THU NOV 23 2017 NOTE: "FAIR" INDICATES FEW OR NO CLOUDS BELOW 12,000 FEET WITH NO SIGNIFICANT WEATHER AND/OR OBSTRUCTIONS TO VISIBILITY. NOT ALL STATIONS ARE QUALITY CONTROLLED. USE DATA WITH CAUTION... ESPECIALLY DEWPOINT OBSERVATIONS. SCZ027-030-031-034>040-042>050-231700- ...SOUTHEAST SOUTH CAROLINA... CITY SKY/WX TMP DP RH WIND PRES REMARKS N CHARLESTON LGT RAIN 48 46 93 NE8 30.07F WATERFRONT PRK NOT AVBL JOHNS ISLAND LGT RAIN 50 50 100 N7 30.06F PINOPOLIS N/A 46 43 87 NE7 30.03S MONCKS CORNER DRIZZLE 46 41 81 NE5 30.08F SUMMERVILLE DRIZZLE 46 45 93 N5 30.09F BEAUFORT MCAS LGT RAIN 50 49 96 N9 30.07F BEAUFORT ARPT RAIN 50 48 93 NE12 30.05F HILTON HEAD IS LGT RAIN 50 46 87 N12 30.06F WALTERBORO RAIN 45 43 93 CALM 30.09F ALLENDALE CLOUDY 48 39 71 VRB3 30.07F ...SOUTHERN MIDLANDS AND PEE DEE... CITY SKY/WX TMP DP RH WIND PRES REMARKS GEORGETOWN DRIZZLE 46 45 93 NE7 30.10F KINGSTREE FAIR 45 36 70 N5 30.11S ORANGEBURG CLOUDY 48 35 60 NE5 30.11S BARNWELL N/A 52 39 62 NE6 30.09F AIKEN FAIR 50 34 53 NE8 30.12F MANNING FAIR 46 36 66 MISG 30.11S COLUMBIA CLOUDY 50 33 52 NE5 30.12S SUMTER PTSUNNY 47 32 56 NE10 30.10S FLORENCE CLOUDY 47 34 60 NE9 30.13F MYRTLE BEACH CLOUDY 47 38 71 N8 30.12F N MYRTLE BEACH CLOUDY 47 38 71 N7 30.10F $$ GAZ063-065-086>088-099>101-113>116-118-119-134>141-150-231700- ...SOUTHEAST GEORGIA... CITY SKY/WX TMP DP RH WIND PRES REMARKS SAVANNAH ARPT RAIN 49 48 97 N6 30.05F HUNTER AAF RAIN 50 46 87 NE3 30.02F FORT STEWART RAIN 49 47 92 N6 30.03S STATESBORO DRIZZLE 49 44 83 N5 30.07S SYLVANIA CLOUDY 49 46 87 NE5 30.08F CLAXTON LGT RAIN 50 48 92 NE7 30.06F ...CSRA...CENTRAL AND FAR SOUTHEAST GEORGIA... CITY SKY/WX TMP DP RH WIND PRES REMARKS THOMSON MOSUNNY 53 35 50 SE7 30.13F AUGUSTA-BUSH CLOUDY 52 35 52 NE8 30.10R AUGUSTA-DANIEL PTSUNNY 53 34 48 NE7 30.10S SWAINSBORO CLOUDY 54 41 62 E8 30.07F VIDALIA DRIZZLE 52 46 82 NE12 30.05F EASTMAN FAIR 59 33 37 E8 30.06F HAZLEHURST FAIR 52 48 87 E8 30.02F ALMA CLOUDY 53 50 89 NE7 30.02F WAYCROSS CLOUDY 54 51 90 NE8 30.01F JESUP RAIN 52 48 87 CALM 30.03F BAXLEY DRIZZLE 50 50 100 NE7 30.02F BRUNSWICK LGT RAIN 55 54 94 NE8 30.03F SAINT SIMONS LGT RAIN 59 58 96 NE13 30.01F FOG $$ SCZ027-028-034-036>038-045-046-048>050-GAZ119-141-231700- ...LAKE AND SUPPLEMENTAL COASTAL OBSERVATIONS... STATION/POSITION TIME TEMP WIND PRES WAVE SWELL AIR SEA DIR/SP/G HT/PER HT/PER/DIR (UTC) (F) (DEG/KT/KT) (MB) (FT/S) (FT/S/D) WINYAH BAY 1545 49 30/ 6 1019.0S LAKE MURRAY 1620 49 40/ 2/ 6 1019.0 ACE BASIN NERRS 1545 48 10/ 3 1018.0F FORT PULASKI 1600 52 62 40/ 10/ 12 1017.4 SAPELO ISLAND 1600 56 40/ 9 1017.0 $$ ANZ835-935-AMZ111-154-330-350-352-354-370-450-454-472-231700- ...C-MAN AND BUOY OBSERVATIONS... STATION/POSITION TIME TEMP WIND PRES WAVE SWELL AIR SEA DIR/SP/G HT/PER HT/PER/DIR (UTC) (F) (DEG/KT/KT) (MB) (FT/S) (FT/S/D) BUOY 41004 1610 66 75 30/ 21/ 27 1015.6 BUOY 41008 1550 62 67 40/ 19/ 23 1015.5F 6/ 7 FOLLY BEACH CMAN 1600 53 20/ 11/ 13 1018.3F CAPERS NEARSHORE 1608 52 62 30/ 17/ 23 1016.9F FRIPP NEARSHORE 1608 52 62 40/ 10/ 23 1016.8F STATION/POSITION TIME TEMP WIND PRES WAVE SWELL AIR SEA DIR/SP/G HT/PER HT/PER/DIR (UTC) (F) (DEG/KT/KT) (MB) (FT/S) (FT/S/D) 5E ST. MARYS GA 1600 67 N/A 6/ 5 FRYING PAN BUOY 1610 62 72 30/ 19/ 23 1017.1 BUOY 41025 1610 57 71 10/ 14/ 16 1019.2 CAPE LOOKOUT NC 1600 30/ 12/ 15 1020.0F BUOY 41002 1550 72 76 50/ 16/ 17 1014.7F 7/ 9 5/ 90/ 9 BUOY 41010 NOT AVBL ST AUGUSTINE FL 1600 66 69 360/ 14/ 15 1013.5F $$

USA.gov is the U.S. government's official web portal to all federal, state and local government web resources and services.